Location: Gloden
(48.4833°N, 15.3167°E)
Time: 07:14:18
(UTC+00:00)

Okean 2 - Pass Details

Date: 15 December 2019
Orbit: 559 x 578 km, 82.5° (Epoch: 18 January)

Event Time Altitude Azimuth Distance (km) Brightness Sun altitude
Rises 05:27:28 0° 354° (N) 2,768 6.6 -11.9°
Reaches altitude 10° 05:29:43 10° 359° (N) 1,864 5.8 -11.5°
Maximum altitude 05:33:44 52° 77° (ENE) 701 4.2 -10.9°
Drops below altitude 10° 05:37:42 10° 155° (SSE) 1,845 6.8 -10.3°
Sets 05:39:54 0° 160° (SSE) 2,736 7.6 -10.0°
